Weather History for Manassas, VA

Change the Weather History Date:

Friday, November 30, 2012

  Actual Average Record
Temperature  
Mean Temperature 36 °F -  
Max Temperature 51 °F 51 °F 71 °F (1998)
Min Temperature 21 °F 28 °F 17 °F (2013)
Degree Days  
Heating Degree Days 29    
Moisture  
Dew Point 26 °F    
Average Humidity 89    
Maximum Humidity 100    
Minimum Humidity 44    
Precipitation  
Precipitation 0.00 in - - ()
Sea Level Pressure  
Sea Level Pressure 30.34 in    
Wind  
Wind Speed 0 mph (NNW)    
Max Wind Speed 4 mph    
Max Gust Speed -    
Visibility 10 miles    
Events      
Averages and records for this station are not official NWS values.
T = Trace of Precipitation, MM = Missing Value Source: NWS Daily Summary

Daily Weather History Graph

Daily Weather History Graph

Search for Another Location

Airport:

Trip Planner

Search our weather history database for the weather conditions in past years. The results will help you decide how hot, cold, wet, or windy it might be!

Date:

Astronomy

Nov. 30, 2012 Rise Set
Actual Time 7:08 AM EST 4:49 PM EST
Civil Twilight 6:39 AM EST 5:18 PM EST
Nautical Twilight 6:06 AM EST 5:51 PM EST
Astronomical Twilight 5:34 AM EST 6:23 PM EST
Moon 6:41 PM EST (11/30) 8:39 AM EST (11/30)
Length of Visible Light 10h 39m
Length of Day
9h 40m
Waning Gibbous, 96% of the Moon is Illuminated
Nov 30
Waning Gibbous
Dec 6
Last Quarter
Dec 13
New
Dec 20
First Quarter
Dec 28
Full

Hourly Weather History & Observations

Time (EST) Temp. Dew Point Humidity Pressure Visibility Wind Dir Wind Speed Gust Speed Precip Events Conditions
12:15 AM 24.8 °F 23.0 °F 93% 30.34 in 10.0 mi Calm Calm - N/A   Clear
12:35 AM 24.8 °F 23.0 °F 93% 30.34 in 10.0 mi Calm Calm - N/A   Clear
12:55 AM 24.8 °F 23.0 °F 93% 30.34 in 10.0 mi Calm Calm - N/A   Clear
1:15 AM 24.8 °F 23.0 °F 93% 30.34 in 10.0 mi Calm Calm - N/A   Clear
1:35 AM 24.8 °F 23.0 °F 93% 30.34 in 10.0 mi Calm Calm - N/A   Clear
1:55 AM 24.8 °F 23.0 °F 93% 30.34 in 10.0 mi Calm Calm - N/A   Clear
2:15 AM 24.8 °F 24.8 °F 100% 30.33 in 10.0 mi Calm Calm - N/A   Clear
2:35 AM 24.8 °F 23.0 °F 93% 30.34 in 10.0 mi Calm Calm - N/A   Clear
2:55 AM 23.0 °F 23.0 °F 100% 30.34 in 10.0 mi Calm Calm - N/A   Clear
3:15 AM 23.0 °F 21.2 °F 93% 30.34 in 10.0 mi Calm Calm - N/A   Clear
3:35 AM 23.0 °F 21.2 °F 93% 30.33 in 10.0 mi Calm Calm - N/A   Clear
3:55 AM 21.2 °F 21.2 °F 100% 30.33 in 10.0 mi Calm Calm - N/A   Clear
4:15 AM 21.2 °F 19.4 °F 93% 30.32 in 10.0 mi Calm Calm - N/A   Clear
4:35 AM 21.2 °F 21.2 °F 100% 30.33 in 10.0 mi Calm Calm - N/A   Clear
4:55 AM 21.2 °F 19.4 °F 93% 30.33 in 10.0 mi Calm Calm - N/A   Clear
5:15 AM 21.2 °F 19.4 °F 93% 30.34 in 10.0 mi Calm Calm - N/A   Clear
5:35 AM 21.2 °F 21.2 °F 100% 30.34 in 10.0 mi Calm Calm - N/A   Clear
5:55 AM 21.2 °F 19.4 °F 93% 30.33 in 10.0 mi Calm Calm - N/A   Clear
6:15 AM 21.2 °F 21.2 °F 100% 30.34 in 10.0 mi Calm Calm - N/A   Clear
7:50 AM 23.0 °F 21.2 °F 93% 30.37 in 10.0 mi Calm Calm - N/A   Clear
8:45 AM 28.4 °F 28.4 °F 100% 30.37 in 10.0 mi Calm Calm - N/A   Clear
9:50 AM 35.6 °F 30.2 °F 81% 30.38 in 10.0 mi Calm Calm - N/A   Clear
10:45 AM 39.2 °F 30.2 °F 70% 30.38 in 10.0 mi Calm Calm - N/A   Clear
11:50 AM 46.4 °F 30.2 °F 53% 30.35 in 10.0 mi Calm Calm - N/A   Clear
12:55 PM 48.2 °F 28.4 °F 46% 30.33 in 10.0 mi Calm Calm - N/A   Clear
1:50 PM 51.8 °F 30.2 °F 44% 30.32 in 10.0 mi Calm Calm - N/A   Scattered Clouds
2:45 PM 51.8 °F 30.2 °F 44% 30.30 in 10.0 mi NNW 3.5 mph - N/A   Clear
4:45 PM 44.6 °F 30.2 °F 57% 30.31 in 10.0 mi Calm Calm - N/A   Clear
6:55 PM 35.6 °F 32.0 °F 87% 30.34 in 10.0 mi Calm Calm - N/A   Clear
7:15 PM 35.6 °F 32.0 °F 87% 30.34 in 10.0 mi Calm Calm - N/A   Clear
7:35 PM 33.8 °F 30.2 °F 87% 30.35 in 10.0 mi Calm Calm - N/A   Clear
8:15 PM 32.0 °F 30.2 °F 93% 30.35 in 10.0 mi Calm Calm - N/A   Clear
8:35 PM 30.2 °F 28.4 °F 93% 30.35 in 10.0 mi Calm Calm - N/A   Clear
8:55 PM 30.2 °F 28.4 °F 93% 30.36 in 10.0 mi Calm Calm - N/A   Clear
9:15 PM 30.2 °F 28.4 °F 93% 30.36 in 10.0 mi Calm Calm - N/A   Clear
9:35 PM 28.4 °F 28.4 °F 100% 30.35 in 10.0 mi Calm Calm - N/A   Clear
9:55 PM 28.4 °F 26.6 °F 93% 30.35 in 10.0 mi Calm Calm - N/A   Clear
10:15 PM 28.4 °F 28.4 °F 100% 30.35 in 10.0 mi Calm Calm - N/A   Clear
10:35 PM 28.4 °F 26.6 °F 93% 30.35 in 10.0 mi Calm Calm - N/A   Clear
10:55 PM 28.4 °F 28.4 °F 100% 30.35 in 10.0 mi Calm Calm - N/A   Clear
11:15 PM 28.4 °F 28.4 °F 100% 30.36 in 10.0 mi Calm Calm - N/A   Clear
11:35 PM 26.6 °F 26.6 °F 100% 30.36 in 10.0 mi Calm Calm - N/A   Clear
11:55 PM 26.6 °F 26.6 °F 100% 30.36 in 10.0 mi Calm Calm - N/A   Clear